Portada
METAR-TAF:

METAR-TAF

Aeropuertos :

Washington Municipal Airport

Washington, Iowa, Estados Unidos

latitud: 41-17N, longitud: 091-40W, altitud: 230 m

Observación

El informe se hizo hace 17 minutos, a las 07:55 UTC
Viento calma
Temperatura 12°C
Humedad 88%
Presión 1024 hPa
Visibilidad: 16.1 km
Cielo despejado

METAR: KAWG 310755Z AUTO 00000KT 10SM CLR 12/10 A3025 RMK AO2

Hora: 03:12 (08:12 UTC)


TAF: falta

Observaciones y pronósticos meteorológicos de más de 4000 aeropuertos (mensajes METAR y TAF).

Los puntos amarillos y rojos representan las estaciones disponibles.

Ponga el ratón en el punto deseado para ver el nombre de la estación.

Haga clic para ver las observaciones y los pronósticos meteorológicos.

Para cambiar el mapa : haga clic en los botones verdes con una cruz de color negro para hacer un zoom, en el botón verde con un guión para alejar o en las flechas verdes para mapas adyacentes.


METAR-TAF: